Showing default

LEGION 6, 62901

Orbit data source: Space-Track

LEGION 6, 62901 is a payload satellite owned by Maxar Intel (US) in LEO that was launched on Tue, 04 Feb 2025 UTC via an FALCON 9 launch vehicle from the Air Force Eastern Test Range (AFETR). Payload-class satellites include a variety of spacecraft equipped with specific instruments for various scientific and technological missions. These include communications satellites like Starlink; space stations such as the ISS; scientific satellites like the Hubble; Earth observation satellites from companies like Planet Labs, Umbra, and HawkEye 360; GPS; miniature CubeSats for education and research; and military/defense satellites.

Loading next visibility...
Identifier
62901, 2025-025B
Orbit
LEO
Country
Flag of USUS
Related business
Manufacturer
Maxar Space Inf
Mission
Operational Commercial Imaging
Bus & Motor
LEGION, Unknown motor
Mass
~700 kg wet, 630 kg dry
Launch date (UTC)
2025-02-04 (1 year ago)
Launch vehicle
FALCON 9
Launch site
Air Force Eastern Test Range (AFETR)
Object type
Payload
Rocket body
Debris
Shape & HBR
Box + 1 Pan, 1.5 m
Radar Cross Section
9.079 m², Large (>1 m²)

Expand to show TLE details & history
Last TLE update: 10 hours ago

TLE from 10 hours ago
0 LEGION 6
1 62901U 25025B   26127.86388722  .00002882  00000-0  16233-3 0  9992
2 62901  45.0011  66.7256 0008527 255.0574 104.9360 15.15693507 69519
Epoch: 2026-05-07T20:43Z
TLE epoch observation values (Epoch: 2026-05-07T20:43:59.855Z)
Latitude
-0.00007°
Longitude
-109.97778°
Altitude
520.393 km
Speed
7.604 km/s
True Right ascension
04h 26m 54s
True Declination
0° 00' 00"
Sunlit
Object was in daylight at epoch
Visualization orbit readout
Latitude
Unknown
Longitude
Unknown
Altitude
Unknown
Speed
Unknown
Apparent Right ascension
Unknown
Apparent Declination
Unknown
Sunlit
N/A
Visualization observer readout
Local Sidereal Time
14:25:58
Azimuth
Unknown
Elevation
Unknown
Doppler factor
Unknown
Orbital elements
Apogee altitude
526.357 km
Perigee altitude
514.592 km
Semi-major axis
6,898.612 km
Eccentricity
0.00085
Inclination
45.0011°
RAAN
66.7256°
Arg. of periapsis
255.0574°
True anomaly
105.03038°
Mean anomaly
104.936°
Eccentric anomaly
104.9832°
Mean motion
3.78792 °/min
Orbital period
95.04 mins
BSTAR
0.00016233
Loading maneuver chart data...
Computing Atmospheric mass density...
Loading historical data...
Loading historical data...
Loading historical data...
Loading historical data...
Loading historical data...
Loading historical data...
Loading historical data...
Other satellites on launch #25 in the year 2025 (2025-02-04 UTC)

Documentation

Showing up to 5 results
|